Datum;"Wasserstand in cm";"Stationsnummer: 5956401";"Stationsname: Wustrow";"Gew?sser: L�cknitz";"Fehlwerte: -777"
"04.04.2024 00:00";135
"04.04.2024 00:15";135
"04.04.2024 00:30";135
"04.04.2024 00:45";135
"04.04.2024 01:00";136
"04.04.2024 01:15";136
"04.04.2024 01:30";136
"04.04.2024 01:45";136
"04.04.2024 02:00";136
"04.04.2024 02:15";136
"04.04.2024 02:30";136
"04.04.2024 02:45";136
"04.04.2024 03:00";136
"04.04.2024 03:15";136
"04.04.2024 03:30";137
"04.04.2024 03:45";137
"04.04.2024 04:00";137
"04.04.2024 04:15";137
"04.04.2024 04:30";137
"04.04.2024 04:45";137
"04.04.2024 05:00";137
"04.04.2024 05:15";137
"04.04.2024 05:30";138
"04.04.2024 05:45";138
"04.04.2024 06:00";138
"04.04.2024 06:15";138
"04.04.2024 06:30";138
"04.04.2024 06:45";138
"04.04.2024 07:00";138
"04.04.2024 07:15";138
"04.04.2024 07:30";139
"04.04.2024 07:45";139
"04.04.2024 08:00";139
"04.04.2024 08:15";139
"04.04.2024 08:30";139
"04.04.2024 08:45";139
"04.04.2024 09:00";139
"04.04.2024 09:15";140
"04.04.2024 09:30";140
"04.04.2024 09:45";140
"04.04.2024 10:00";140
"04.04.2024 10:15";140
"04.04.2024 10:30";140
"04.04.2024 10:45";140
"04.04.2024 11:00";141
"04.04.2024 11:15";141
"04.04.2024 11:30";141
"04.04.2024 11:45";141
"04.04.2024 12:00";141
"04.04.2024 12:15";141
"04.04.2024 12:30";141
"04.04.2024 12:45";142
"04.04.2024 13:00";142
"04.04.2024 13:15";142
"04.04.2024 13:30";143
"04.04.2024 13:45";143
"04.04.2024 14:00";143
"04.04.2024 14:15";143
"04.04.2024 14:30";144
"04.04.2024 14:45";144
"04.04.2024 15:00";144
"04.04.2024 15:15";144
"04.04.2024 15:30";144
"04.04.2024 15:45";144
"04.04.2024 16:00";144
"04.04.2024 16:15";145
"04.04.2024 16:30";145
"04.04.2024 16:45";145
"04.04.2024 17:00";145
"04.04.2024 17:15";145
"04.04.2024 17:30";145
"04.04.2024 17:45";145
"04.04.2024 18:00";145
"04.04.2024 18:15";145
"04.04.2024 18:30";145
"04.04.2024 18:45";145
"04.04.2024 19:00";146
"04.04.2024 19:15";146
"04.04.2024 19:30";146
"04.04.2024 19:45";146
"04.04.2024 20:00";146
"04.04.2024 20:15";146
"04.04.2024 20:30";146
"04.04.2024 20:45";146
"04.04.2024 21:00";146
"04.04.2024 21:15";147
"04.04.2024 21:30";147
"04.04.2024 21:45";147
"04.04.2024 22:00";147
"04.04.2024 22:15";147
"04.04.2024 22:30";147
"04.04.2024 22:45";147
"04.04.2024 23:00";147
"04.04.2024 23:15";147
"04.04.2024 23:30";147
"04.04.2024 23:45";148
"05.04.2024 00:00";148
"05.04.2024 00:15";148
"05.04.2024 00:30";148
"05.04.2024 00:45";148
"05.04.2024 01:00";148
"05.04.2024 01:15";148
"05.04.2024 01:30";148
"05.04.2024 01:45";148
"05.04.2024 02:00";148
"05.04.2024 02:15";149
"05.04.2024 02:30";149
"05.04.2024 02:45";149
"05.04.2024 03:00";149
"05.04.2024 03:15";149
"05.04.2024 03:30";149
"05.04.2024 03:45";149
"05.04.2024 04:00";149
"05.04.2024 04:15";149
"05.04.2024 04:30";149
"05.04.2024 04:45";149
"05.04.2024 05:00";149
"05.04.2024 05:15";150
"05.04.2024 05:30";150
"05.04.2024 05:45";150
"05.04.2024 06:00";150
"05.04.2024 06:15";150
"05.04.2024 06:30";150
"05.04.2024 06:45";150
"05.04.2024 07:00";150
"05.04.2024 07:15";150
"05.04.2024 07:30";150
"05.04.2024 07:45";149
"05.04.2024 08:00";149
"05.04.2024 08:15";149
"05.04.2024 08:30";148
"05.04.2024 08:45";148
"05.04.2024 09:00";148
"05.04.2024 09:15";148
"05.04.2024 09:30";148
"05.04.2024 09:45";147
"05.04.2024 10:00";147
"05.04.2024 10:15";147
"05.04.2024 10:30";147
"05.04.2024 10:45";147
"05.04.2024 11:00";147
"05.04.2024 11:15";147
"05.04.2024 11:30";147
"05.04.2024 11:45";147
"05.04.2024 12:00";147
"05.04.2024 12:15";147
"05.04.2024 12:30";147
"05.04.2024 12:45";147
"05.04.2024 13:00";147
"05.04.2024 13:15";148
"05.04.2024 13:30";148
"05.04.2024 13:45";148
"05.04.2024 14:00";148
"05.04.2024 14:15";148
"05.04.2024 14:30";148
"05.04.2024 14:45";148
"05.04.2024 15:00";148
"05.04.2024 15:15";148
"05.04.2024 15:30";148
"05.04.2024 15:45";148
"05.04.2024 16:00";148
"05.04.2024 16:15";148
"05.04.2024 16:30";148
"05.04.2024 16:45";149
"05.04.2024 17:00";149
"05.04.2024 17:15";149
"05.04.2024 17:30";149
"05.04.2024 17:45";149
"05.04.2024 18:00";149
"05.04.2024 18:15";149
"05.04.2024 18:30";149
"05.04.2024 18:45";149
"05.04.2024 19:00";149
"05.04.2024 19:15";149
"05.04.2024 19:30";149
"05.04.2024 19:45";149
"05.04.2024 20:00";149
"05.04.2024 20:15";149
"05.04.2024 20:30";149
"05.04.2024 20:45";149
"05.04.2024 21:00";149
"05.04.2024 21:15";149
"05.04.2024 21:30";149
"05.04.2024 21:45";149
"05.04.2024 22:00";150
"05.04.2024 22:15";150
"05.04.2024 22:30";150
"05.04.2024 22:45";150
"05.04.2024 23:00";150
"05.04.2024 23:15";150
"05.04.2024 23:30";150
"05.04.2024 23:45";150
"06.04.2024 00:00";150
"06.04.2024 00:15";150
"06.04.2024 00:30";150
"06.04.2024 00:45";150
"06.04.2024 01:00";150
"06.04.2024 01:15";150
"06.04.2024 01:30";150
"06.04.2024 01:45";150
"06.04.2024 02:00";150
"06.04.2024 02:15";150
"06.04.2024 02:30";150
"06.04.2024 02:45";150
"06.04.2024 03:00";150
"06.04.2024 03:15";150
"06.04.2024 03:30";150
"06.04.2024 03:45";150
"06.04.2024 04:00";150
"06.04.2024 04:15";150
"06.04.2024 04:30";150
"06.04.2024 04:45";150
"06.04.2024 05:00";150
"06.04.2024 05:15";150
"06.04.2024 05:30";150
"06.04.2024 05:45";150
"06.04.2024 06:00";150
"06.04.2024 06:15";150
"06.04.2024 06:30";150
"06.04.2024 06:45";150
"06.04.2024 07:00";150
"06.04.2024 07:15";150
"06.04.2024 07:30";150
"06.04.2024 07:45";150
"06.04.2024 08:00";150
"06.04.2024 08:15";150
"06.04.2024 08:30";150
"06.04.2024 08:45";151
"06.04.2024 09:00";151
"06.04.2024 09:15";151
"06.04.2024 09:30";151
"06.04.2024 09:45";151
"06.04.2024 10:00";151
"06.04.2024 10:15";151
"06.04.2024 10:30";151
"06.04.2024 10:45";151
"06.04.2024 11:00";151
"06.04.2024 11:15";151
"06.04.2024 11:30";151
"06.04.2024 11:45";151
"06.04.2024 12:00";151
"06.04.2024 12:15";151
"06.04.2024 12:30";151
"06.04.2024 12:45";151
"06.04.2024 13:00";151
"06.04.2024 13:15";151
"06.04.2024 13:30";151
"06.04.2024 13:45";151
"06.04.2024 14:00";151
"06.04.2024 14:15";151
"06.04.2024 14:30";151
"06.04.2024 14:45";151
"06.04.2024 15:00";151
"06.04.2024 15:15";151
"06.04.2024 15:30";151
"06.04.2024 15:45";151
"06.04.2024 16:00";151
"06.04.2024 16:15";151
"06.04.2024 16:30";151
"06.04.2024 16:45";151
"06.04.2024 17:00";151
"06.04.2024 17:15";151
"06.04.2024 17:30";151
"06.04.2024 17:45";151
"06.04.2024 18:00";151
"06.04.2024 18:15";151
"06.04.2024 18:30";151
"06.04.2024 18:45";151
"06.04.2024 19:00";151
"06.04.2024 19:15";151
"06.04.2024 19:30";151
"06.04.2024 19:45";151
"06.04.2024 20:00";151
"06.04.2024 20:15";151
"06.04.2024 20:30";151
"06.04.2024 20:45";151
"06.04.2024 21:00";151
"06.04.2024 21:15";151
"06.04.2024 21:30";151
"06.04.2024 21:45";151
"06.04.2024 22:00";151
"06.04.2024 22:15";151
"06.04.2024 22:30";151
"06.04.2024 22:45";151
"06.04.2024 23:00";151
"06.04.2024 23:15";151
"06.04.2024 23:30";151
"06.04.2024 23:45";151
"07.04.2024 00:00";151
"07.04.2024 00:15";151
"07.04.2024 00:30";151
"07.04.2024 00:45";151
"07.04.2024 01:00";151
"07.04.2024 01:15";150
"07.04.2024 01:30";150
"07.04.2024 01:45";150
"07.04.2024 02:00";150
"07.04.2024 02:15";150
"07.04.2024 02:30";150
"07.04.2024 02:45";150
"07.04.2024 03:00";150
"07.04.2024 03:15";150
"07.04.2024 03:30";150
"07.04.2024 03:45";150
"07.04.2024 04:00";150
"07.04.2024 04:15";150
"07.04.2024 04:30";150
"07.04.2024 04:45";150
"07.04.2024 05:00";150
"07.04.2024 05:15";150
"07.04.2024 05:30";150
"07.04.2024 05:45";150
"07.04.2024 06:00";150
"07.04.2024 06:15";150
"07.04.2024 06:30";149
"07.04.2024 06:45";149
"07.04.2024 07:00";149
"07.04.2024 07:15";149
"07.04.2024 07:30";149
"07.04.2024 07:45";149
"07.04.2024 08:00";149
"07.04.2024 08:15";149
"07.04.2024 08:30";149
"07.04.2024 08:45";149
"07.04.2024 09:00";149
"07.04.2024 09:15";149
"07.04.2024 09:30";149
"07.04.2024 09:45";149
"07.04.2024 10:00";149
"07.04.2024 10:15";149
"07.04.2024 10:30";148
"07.04.2024 10:45";148
"07.04.2024 11:00";148
"07.04.2024 11:15";148
"07.04.2024 11:30";148
"07.04.2024 11:45";148
"07.04.2024 12:00";148
"07.04.2024 12:15";148
"07.04.2024 12:30";148
"07.04.2024 12:45";148
"07.04.2024 13:00";148
"07.04.2024 13:15";147
"07.04.2024 13:30";147
"07.04.2024 13:45";147
"07.04.2024 14:00";146
"07.04.2024 14:15";146
"07.04.2024 14:30";146
"07.04.2024 14:45";146
"07.04.2024 15:00";145
"07.04.2024 15:15";145
"07.04.2024 15:30";145
"07.04.2024 15:45";145
"07.04.2024 16:00";145
"07.04.2024 16:15";144
"07.04.2024 16:30";144
"07.04.2024 16:45";144
"07.04.2024 17:00";144
"07.04.2024 17:15";144
"07.04.2024 17:30";144
"07.04.2024 17:45";144
"07.04.2024 18:00";143
"07.04.2024 18:15";143
"07.04.2024 18:30";143
"07.04.2024 18:45";143
"07.04.2024 19:00";143
"07.04.2024 19:15";143
"07.04.2024 19:30";143
"07.04.2024 19:45";143
"07.04.2024 20:00";143
"07.04.2024 20:15";142
"07.04.2024 20:30";142
"07.04.2024 20:45";142
"07.04.2024 21:00";142
"07.04.2024 21:15";142
"07.04.2024 21:30";142
"07.04.2024 21:45";142
"07.04.2024 22:00";142
"07.04.2024 22:15";142
"07.04.2024 22:30";141
"07.04.2024 22:45";141
"07.04.2024 23:00";141
"07.04.2024 23:15";141
"07.04.2024 23:30";141
"07.04.2024 23:45";141
"08.04.2024 00:00";141
"08.04.2024 00:15";141
"08.04.2024 00:30";141
"08.04.2024 00:45";141
"08.04.2024 01:00";141
"08.04.2024 01:15";140
"08.04.2024 01:30";140
"08.04.2024 01:45";140
"08.04.2024 02:00";140
"08.04.2024 02:15";140
"08.04.2024 02:30";140
"08.04.2024 02:45";140
"08.04.2024 03:00";140
"08.04.2024 03:15";140
"08.04.2024 03:30";140
"08.04.2024 03:45";140
"08.04.2024 04:00";140
"08.04.2024 04:15";139
"08.04.2024 04:30";139
"08.04.2024 04:45";139
"08.04.2024 05:00";139
"08.04.2024 05:15";139
"08.04.2024 05:30";139
"08.04.2024 05:45";139
"08.04.2024 06:00";139
"08.04.2024 06:15";139
"08.04.2024 06:30";139
"08.04.2024 06:45";138
"08.04.2024 07:00";138
"08.04.2024 07:15";138
"08.04.2024 07:30";138
"08.04.2024 07:45";138
"08.04.2024 08:00";138
"08.04.2024 08:15";138
"08.04.2024 08:30";138
"08.04.2024 08:45";138
"08.04.2024 09:00";138
"08.04.2024 09:15";138
"08.04.2024 09:30";137
"08.04.2024 09:45";137
"08.04.2024 10:00";137
"08.04.2024 10:15";137
"08.04.2024 10:30";137
"08.04.2024 10:45";137
"08.04.2024 11:00";137
"08.04.2024 11:15";137
"08.04.2024 11:30";137
"08.04.2024 11:45";137
"08.04.2024 12:00";137
"08.04.2024 12:15";137
"08.04.2024 12:30";137
"08.04.2024 12:45";137
"08.04.2024 13:00";137
"08.04.2024 13:15";137
"08.04.2024 13:30";137
"08.04.2024 13:45";136
"08.04.2024 14:00";136
"08.04.2024 14:15";136
"08.04.2024 14:30";136
"08.04.2024 14:45";136
"08.04.2024 15:00";136
"08.04.2024 15:15";136
"08.04.2024 15:30";136
"08.04.2024 15:45";136
"08.04.2024 16:00";136
"08.04.2024 16:15";136
"08.04.2024 16:30";136
"08.04.2024 16:45";136
"08.04.2024 17:00";136
"08.04.2024 17:15";136
"08.04.2024 17:30";136
"08.04.2024 17:45";135
"08.04.2024 18:00";135
"08.04.2024 18:15";135
"08.04.2024 18:30";135
"08.04.2024 18:45";135
"08.04.2024 19:00";135
"08.04.2024 19:15";135
"08.04.2024 19:30";134
"08.04.2024 19:45";134
"08.04.2024 20:00";134
"08.04.2024 20:15";134
"08.04.2024 20:30";134
"08.04.2024 20:45";134
"08.04.2024 21:00";133
"08.04.2024 21:15";133
"08.04.2024 21:30";133
"08.04.2024 21:45";133
"08.04.2024 22:00";133
"08.04.2024 22:15";133
"08.04.2024 22:30";132
"08.04.2024 22:45";132
"08.04.2024 23:00";132
"08.04.2024 23:15";132
"08.04.2024 23:30";131
"08.04.2024 23:45";131
"09.04.2024 00:00";131
"09.04.2024 00:15";131
"09.04.2024 00:30";131
"09.04.2024 00:45";131
"09.04.2024 01:00";131
"09.04.2024 01:15";131
"09.04.2024 01:30";131
"09.04.2024 01:45";130
"09.04.2024 02:00";130
"09.04.2024 02:15";130
"09.04.2024 02:30";130
"09.04.2024 02:45";130
"09.04.2024 03:00";130
"09.04.2024 03:15";130
"09.04.2024 03:30";130
"09.04.2024 03:45";130
"09.04.2024 04:00";130
"09.04.2024 04:15";130
"09.04.2024 04:30";130
"09.04.2024 04:45";130
"09.04.2024 05:00";130
"09.04.2024 05:15";130
"09.04.2024 05:30";130
"09.04.2024 05:45";130
"09.04.2024 06:00";130
"09.04.2024 06:15";130
"09.04.2024 06:30";130
"09.04.2024 06:45";130
"09.04.2024 07:00";130
"09.04.2024 07:15";130
"09.04.2024 07:30";130
"09.04.2024 07:45";130
"09.04.2024 08:00";130
"09.04.2024 08:15";130
"09.04.2024 08:30";130
"09.04.2024 08:45";130
"09.04.2024 09:00";130
"09.04.2024 09:15";130
"09.04.2024 09:30";130
"09.04.2024 09:45";131
"09.04.2024 10:00";132
"09.04.2024 10:15";132
"09.04.2024 10:30";133
"09.04.2024 10:45";134
"09.04.2024 11:00";135
"09.04.2024 11:15";135
"09.04.2024 11:30";135
"09.04.2024 11:45";136
"09.04.2024 12:00";136
"09.04.2024 12:15";136
"09.04.2024 12:30";137
"09.04.2024 12:45";137
"09.04.2024 13:00";137
"09.04.2024 13:15";137
"09.04.2024 13:30";138
"09.04.2024 13:45";138
"09.04.2024 14:00";138
"09.04.2024 14:15";138
"09.04.2024 14:30";138
"09.04.2024 14:45";138
"09.04.2024 15:00";139
"09.04.2024 15:15";139
"09.04.2024 15:30";139
"09.04.2024 15:45";139
"09.04.2024 16:00";139
"09.04.2024 16:15";139
"09.04.2024 16:30";139
"09.04.2024 16:45";139
"09.04.2024 17:00";139
"09.04.2024 17:15";139
"09.04.2024 17:30";139
"09.04.2024 17:45";139
"09.04.2024 18:00";139
"09.04.2024 18:15";140
"09.04.2024 18:30";140
"09.04.2024 18:45";140
"09.04.2024 19:00";140
"09.04.2024 19:15";140
"09.04.2024 19:30";140
"09.04.2024 19:45";140
"09.04.2024 20:00";140
"09.04.2024 20:15";140
"09.04.2024 20:30";140
"09.04.2024 20:45";140
"09.04.2024 21:00";140
"09.04.2024 21:15";140
"09.04.2024 21:30";140
"09.04.2024 21:45";140
"09.04.2024 22:00";140
"09.04.2024 22:15";140
"09.04.2024 22:30";140
"09.04.2024 22:45";140
"09.04.2024 23:00";140
"09.04.2024 23:15";140
"09.04.2024 23:30";140
"09.04.2024 23:45";140
"10.04.2024 00:00";140
"10.04.2024 00:15";140
"10.04.2024 00:30";140
"10.04.2024 00:45";140
"10.04.2024 01:00";140
"10.04.2024 01:15";140
"10.04.2024 01:30";140
"10.04.2024 01:45";140
"10.04.2024 02:00";140
"10.04.2024 02:15";140
"10.04.2024 02:30";140
"10.04.2024 02:45";140
"10.04.2024 03:00";140
"10.04.2024 03:15";140
"10.04.2024 03:30";140
"10.04.2024 03:45";140
"10.04.2024 04:00";140
"10.04.2024 04:15";140
"10.04.2024 04:30";139
"10.04.2024 04:45";139
"10.04.2024 05:00";139
"10.04.2024 05:15";139
"10.04.2024 05:30";139
"10.04.2024 05:45";139
"10.04.2024 06:00";139
"10.04.2024 06:15";139
"10.04.2024 06:30";139
"10.04.2024 06:45";139
"10.04.2024 07:00";139
"10.04.2024 07:15";138
"10.04.2024 07:30";138
"10.04.2024 07:45";138
"10.04.2024 08:00";138
"10.04.2024 08:15";138
"10.04.2024 08:30";138
"10.04.2024 08:45";138
"10.04.2024 09:00";137
"10.04.2024 09:15";137
"10.04.2024 09:30";137
"10.04.2024 09:45";137
"10.04.2024 10:00";137
"10.04.2024 10:15";137
"10.04.2024 10:30";137
"10.04.2024 10:45";137
"10.04.2024 11:00";136
"10.04.2024 11:15";136
"10.04.2024 11:30";136
"10.04.2024 11:45";136
"10.04.2024 12:00";136
"10.04.2024 12:15";136
"10.04.2024 12:30";136
"10.04.2024 12:45";136
"10.04.2024 13:00";136
"10.04.2024 13:15";136
"10.04.2024 13:30";135
"10.04.2024 13:45";135
"10.04.2024 14:00";135
"10.04.2024 14:15";135
"10.04.2024 14:30";135
"10.04.2024 14:45";135
"10.04.2024 15:00";135
"10.04.2024 15:15";135
"10.04.2024 15:30";135
"10.04.2024 15:45";135
"10.04.2024 16:00";135
"10.04.2024 16:15";135
"10.04.2024 16:30";135
"10.04.2024 16:45";135
"10.04.2024 17:00";135
"10.04.2024 17:15";135
"10.04.2024 17:30";134
"10.04.2024 17:45";134
"10.04.2024 18:00";134
"10.04.2024 18:15";134
"10.04.2024 18:30";134
"10.04.2024 18:45";134
"10.04.2024 19:00";134
"10.04.2024 19:15";134
"10.04.2024 19:30";134
"10.04.2024 19:45";134
"10.04.2024 20:00";134
"10.04.2024 20:15";134
"10.04.2024 20:30";134
"10.04.2024 20:45";134
"10.04.2024 21:00";134
"10.04.2024 21:15";134
"10.04.2024 21:30";134
"10.04.2024 21:45";134
"10.04.2024 22:00";134
"10.04.2024 22:15";134
"10.04.2024 22:30";134
"10.04.2024 22:45";134
"10.04.2024 23:00";134
"10.04.2024 23:15";134
"10.04.2024 23:30";134
"10.04.2024 23:45";133
"11.04.2024 00:00";133
"11.04.2024 00:15";133
"11.04.2024 00:30";133
"11.04.2024 00:45";133
"11.04.2024 01:00";133
"11.04.2024 01:15";134
"11.04.2024 01:30";134
"11.04.2024 01:45";133
"11.04.2024 02:00";133
"11.04.2024 02:15";133
"11.04.2024 02:30";133
"11.04.2024 02:45";133
"11.04.2024 03:00";133
"11.04.2024 03:15";133
"11.04.2024 03:30";133
"11.04.2024 03:45";133
"11.04.2024 04:00";133
"11.04.2024 04:15";133
"11.04.2024 04:30";133
"11.04.2024 04:45";133
"11.04.2024 05:00";133
"11.04.2024 05:15";133
"11.04.2024 05:30";133
"11.04.2024 05:45";133
"11.04.2024 06:00";133
"11.04.2024 06:15";133
"11.04.2024 06:30";133
"11.04.2024 06:45";133
"11.04.2024 07:00";132
"11.04.2024 07:15";132
"11.04.2024 07:30";132
"11.04.2024 07:45";132
"11.04.2024 08:00";132
"11.04.2024 08:15";132
"11.04.2024 08:30";132
"11.04.2024 08:45";132
"11.04.2024 09:00";132
"11.04.2024 09:15";132
"11.04.2024 09:30";132
"11.04.2024 09:45";132
"11.04.2024 10:00";132
"11.04.2024 10:15";131
"11.04.2024 10:30";131
"11.04.2024 10:45";131
"11.04.2024 11:00";131
"11.04.2024 11:15";131
"11.04.2024 11:30";131
"11.04.2024 11:45";131
"11.04.2024 12:00";131
"11.04.2024 12:15";131
"11.04.2024 12:30";131
"11.04.2024 12:45";131
"11.04.2024 13:00";131
"11.04.2024 13:15";131
"11.04.2024 13:30";131
"11.04.2024 13:45";131
"11.04.2024 14:00";131
"11.04.2024 14:15";131
"11.04.2024 14:30";131
"11.04.2024 14:45";131
"11.04.2024 15:00";131
"11.04.2024 15:15";131
"11.04.2024 15:30";128
"11.04.2024 15:45";128
"11.04.2024 16:00";128
"11.04.2024 16:15";128
"11.04.2024 16:30";128
"11.04.2024 16:45";127
"11.04.2024 17:00";127
"11.04.2024 17:15";127
"11.04.2024 17:30";127
"11.04.2024 17:45";127
"11.04.2024 18:00";127
"11.04.2024 18:15";127
"11.04.2024 18:30";127
"11.04.2024 18:45";127
"11.04.2024 19:00";127
"11.04.2024 19:15";127
"11.04.2024 19:30";127
"11.04.2024 19:45";127
"11.04.2024 20:00";127
"11.04.2024 20:15";127
"11.04.2024 20:30";127
"11.04.2024 20:45";127
"11.04.2024 21:00";127
"11.04.2024 21:15";127
"11.04.2024 21:30";126
"11.04.2024 21:45";126
"11.04.2024 22:00";126
"11.04.2024 22:15";126
"11.04.2024 22:30";126
"11.04.2024 22:45";126
"11.04.2024 23:00";126
"11.04.2024 23:15";126
"11.04.2024 23:30";126
"11.04.2024 23:45";126
"12.04.2024 00:00";126
"12.04.2024 00:15";126
"12.04.2024 00:30";126
"12.04.2024 00:45";126
"12.04.2024 01:00";126
"12.04.2024 01:15";126
"12.04.2024 01:30";126
"12.04.2024 01:45";126
"12.04.2024 02:00";126
"12.04.2024 02:15";126
"12.04.2024 02:30";126
"12.04.2024 02:45";126
"12.04.2024 03:00";126
"12.04.2024 03:15";125
"12.04.2024 03:30";125
"12.04.2024 03:45";125
"12.04.2024 04:00";125
"12.04.2024 04:15";125
"12.04.2024 04:30";125
"12.04.2024 04:45";125
"12.04.2024 05:00";125
"12.04.2024 05:15";125
"12.04.2024 05:30";125
"12.04.2024 05:45";125
"12.04.2024 06:00";125
"12.04.2024 06:15";125
"12.04.2024 06:30";125
"12.04.2024 06:45";125
"12.04.2024 07:00";125
"12.04.2024 07:15";125
"12.04.2024 07:30";125
"12.04.2024 07:45";125
"12.04.2024 08:00";125
"12.04.2024 08:15";125
"12.04.2024 08:30";125
"12.04.2024 08:45";125
"12.04.2024 09:00";125
"12.04.2024 09:15";125
"12.04.2024 09:30";125
"12.04.2024 09:45";125
"12.04.2024 10:00";125
"12.04.2024 10:15";124
"12.04.2024 10:30";124
"12.04.2024 10:45";124
"12.04.2024 11:00";124
"12.04.2024 11:15";124
"12.04.2024 11:30";124
"12.04.2024 11:45";124
"12.04.2024 12:00";124
"12.04.2024 12:15";124
"12.04.2024 12:30";124
"12.04.2024 12:45";124
"12.04.2024 13:00";124
"12.04.2024 13:15";124
"12.04.2024 13:30";124
"12.04.2024 13:45";124
"12.04.2024 14:00";124
"12.04.2024 14:15";124
"12.04.2024 14:30";124
"12.04.2024 14:45";124
"12.04.2024 15:00";124
"12.04.2024 15:15";124
"12.04.2024 15:30";124
"12.04.2024 15:45";124
"12.04.2024 16:00";124
"12.04.2024 16:15";124
"12.04.2024 16:30";124
"12.04.2024 16:45";124
"12.04.2024 17:00";124
"12.04.2024 17:15";124
"12.04.2024 17:30";124
"12.04.2024 17:45";124
"12.04.2024 18:00";124
"12.04.2024 18:15";124
"12.04.2024 18:30";124
"12.04.2024 18:45";124
"12.04.2024 19:00";124
"12.04.2024 19:15";124
"12.04.2024 19:30";124
"12.04.2024 19:45";124
"12.04.2024 20:00";124
"12.04.2024 20:15";124
"12.04.2024 20:30";124
"12.04.2024 20:45";124
"12.04.2024 21:00";124
"12.04.2024 21:15";124
"12.04.2024 21:30";124
"12.04.2024 21:45";124
"12.04.2024 22:00";124
"12.04.2024 22:15";124
"12.04.2024 22:30";124
"12.04.2024 22:45";124
"12.04.2024 23:00";124
"12.04.2024 23:15";124
"12.04.2024 23:30";124
"12.04.2024 23:45";124
"13.04.2024 00:00";124
"13.04.2024 00:15";124
"13.04.2024 00:30";124
"13.04.2024 00:45";124
"13.04.2024 01:00";124
"13.04.2024 01:15";124
"13.04.2024 01:30";124
"13.04.2024 01:45";124
"13.04.2024 02:00";124
"13.04.2024 02:15";124
"13.04.2024 02:30";124
"13.04.2024 02:45";124
"13.04.2024 03:00";124
"13.04.2024 03:15";123
"13.04.2024 03:30";123
"13.04.2024 03:45";123
"13.04.2024 04:00";123
"13.04.2024 04:15";123
"13.04.2024 04:30";123
"13.04.2024 04:45";123
"13.04.2024 05:00";123
"13.04.2024 05:15";123
"13.04.2024 05:30";123
"13.04.2024 05:45";123
"13.04.2024 06:00";123
"13.04.2024 06:15";123
"13.04.2024 06:30";123
"13.04.2024 06:45";123
"13.04.2024 07:00";123
"13.04.2024 07:15";123
"13.04.2024 07:30";123
"13.04.2024 07:45";123
"13.04.2024 08:00";123
"13.04.2024 08:15";123
"13.04.2024 08:30";123
"13.04.2024 08:45";123
"13.04.2024 09:00";123
"13.04.2024 09:15";123
"13.04.2024 09:30";123
"13.04.2024 09:45";123
"13.04.2024 10:00";123
"13.04.2024 10:15";123
"13.04.2024 10:30";123
"13.04.2024 10:45";123
"13.04.2024 11:00";123
"13.04.2024 11:15";123
"13.04.2024 11:30";123
"13.04.2024 11:45";123
"13.04.2024 12:00";123
"13.04.2024 12:15";123
"13.04.2024 12:30";123
"13.04.2024 12:45";123
"13.04.2024 13:00";123
"13.04.2024 13:15";123
"13.04.2024 13:30";123
"13.04.2024 13:45";123
"13.04.2024 14:00";123
"13.04.2024 14:15";123
"13.04.2024 14:30";123
"13.04.2024 14:45";123
"13.04.2024 15:00";123
"13.04.2024 15:15";123
"13.04.2024 15:30";123
"13.04.2024 15:45";123
"13.04.2024 16:00";123
"13.04.2024 16:15";123
"13.04.2024 16:30";123
"13.04.2024 16:45";123
"13.04.2024 17:00";123
"13.04.2024 17:15";123
"13.04.2024 17:30";123
"13.04.2024 17:45";123
"13.04.2024 18:00";123
"13.04.2024 18:15";123
"13.04.2024 18:30";123
"13.04.2024 18:45";123
"13.04.2024 19:00";122
"13.04.2024 19:15";122
"13.04.2024 19:30";122
"13.04.2024 19:45";122
"13.04.2024 20:00";122
"13.04.2024 20:15";122
"13.04.2024 20:30";122
"13.04.2024 20:45";122
"13.04.2024 21:00";122
"13.04.2024 21:15";122
"13.04.2024 21:30";122
"13.04.2024 21:45";122
"13.04.2024 22:00";122
"13.04.2024 22:15";122
"13.04.2024 22:30";122
"13.04.2024 22:45";122
"13.04.2024 23:00";122
"13.04.2024 23:15";122
"13.04.2024 23:30";122
"13.04.2024 23:45";122
"14.04.2024 00:00";122
"14.04.2024 00:15";122
"14.04.2024 00:30";122
"14.04.2024 00:45";122
"14.04.2024 01:00";122
"14.04.2024 01:15";122
"14.04.2024 01:30";122
"14.04.2024 01:45";122
"14.04.2024 02:00";122
"14.04.2024 02:15";122
"14.04.2024 02:30";122
"14.04.2024 02:45";122
"14.04.2024 03:00";122
"14.04.2024 03:15";122
"14.04.2024 03:30";122
"14.04.2024 03:45";122
"14.04.2024 04:00";122
"14.04.2024 04:15";122
"14.04.2024 04:30";122
"14.04.2024 04:45";121
"14.04.2024 05:00";121
"14.04.2024 05:15";121
"14.04.2024 05:30";121
"14.04.2024 05:45";121
"14.04.2024 06:00";121
"14.04.2024 06:15";121
"14.04.2024 06:30";121
"14.04.2024 06:45";121
"14.04.2024 07:00";121
"14.04.2024 07:15";121
"14.04.2024 07:30";121
"14.04.2024 07:45";121
"14.04.2024 08:00";121
"14.04.2024 08:15";121
"14.04.2024 08:30";121
"14.04.2024 08:45";121
"14.04.2024 09:00";121
"14.04.2024 09:15";121
"14.04.2024 09:30";121
"14.04.2024 09:45";121
"14.04.2024 10:00";121
"14.04.2024 10:15";121
"14.04.2024 10:30";121
"14.04.2024 10:45";121
"14.04.2024 11:00";121
"14.04.2024 11:15";121
"14.04.2024 11:30";121
"14.04.2024 11:45";121
"14.04.2024 12:00";121
"14.04.2024 12:15";121
"14.04.2024 12:30";121
"14.04.2024 12:45";121
"14.04.2024 13:00";121
"14.04.2024 13:15";121
"14.04.2024 13:30";121
"14.04.2024 13:45";121
"14.04.2024 14:00";121
"14.04.2024 14:15";121
"14.04.2024 14:30";121
"14.04.2024 14:45";121
"14.04.2024 15:00";121
"14.04.2024 15:15";120
"14.04.2024 15:30";120
"14.04.2024 15:45";120
"14.04.2024 16:00";120
"14.04.2024 16:15";120
"14.04.2024 16:30";120
"14.04.2024 16:45";120
"14.04.2024 17:00";120
"14.04.2024 17:15";120
"14.04.2024 17:30";120
"14.04.2024 17:45";120
"14.04.2024 18:00";120
"14.04.2024 18:15";120
"14.04.2024 18:30";120
"14.04.2024 18:45";120
"14.04.2024 19:00";120
"14.04.2024 19:15";120